Home > Weather > Bramsche > Past weeks

Flag for Germany Weather for the Past 2 Weeks in Bramsche, Lower Saxony, Germany

Now
43 °F

Partly cloudy.


Feels Like: 38 °F
Forecast: 36 / 63 °F
Wind: 8 mph from North

Location: Muenster / Osnabrueck

Current Time: May 1, 2016 at 4:25:45 AM

Latest Report: May 1, 2016 at 3:50 AM


Visibility: N/A

Pressure: 30.24 "Hg

Humidity: 81%

Dew Point: 37 °F

Location of BramscheLocation

Historic Weather in Bramsche — Graph

°F

Bramsche Temperature Yesterday

Maximum temperature yesterday: 52 °F (at 5:50 PM)
Minimum temperature yesterday: 41 °F (at 3:20 AM)
Average temperature yesterday: 46 °F

High & Low Weather Summary for the Past Weeks

 TemperatureHumidityPressure
High61 °F (Apr 21, 2:50 PM)100% (Apr 18, 3:50 AM)30.48 "Hg (Apr 18, 3:50 AM)
Low30 °F (Apr 18, 6:20 AM)31% (Apr 21, 6:20 PM)29.42 "Hg (Apr 26, 8:20 AM)
Average44 °F73%29.95 "Hg
* Reported Apr 16 3:20 AM — May 1 3:20 AM, Bramsche, Weather by CustomWeather, © 2016

Note: Actual official high and low records may vary slightly from our data, if they occured in-between our weather recording intervals... More about our weather records

Advertising

Bramsche Weather History for the Previous 24 Hours

Scroll right to see more
 ConditionsComfort  
Time TempWeatherWind HumidityBarometerVisibility
3:20 AM
Sun, May 1
41 °FPartly cloudy.6 mph87%30.24 "HgN/A
2:50 AM43 °FPartly cloudy.7 mph81%30.24 "HgN/A
2:20 AM43 °FPartly cloudy.6 mph81%30.24 "HgN/A
1:50 AM43 °FPartly cloudy.8 mph81%30.21 "HgN/A
1:20 AM43 °FClear.9 mph81%30.21 "Hg10 mi
12:50 AM43 °FClear.9 mph81%30.21 "Hg10 mi
12:20 AM45 °FClear.9 mph76%30.21 "Hg10 mi
11:50 PM
Sat, Apr 30
43 °FClear.9 mph81%30.21 "Hg10 mi
11:20 PM45 °FClear.12 mph76%30.21 "Hg10 mi
10:50 PM46 °FClear.10 mph71%30.18 "Hg10 mi
10:20 PM46 °FClear.9 mph76%30.18 "Hg10 mi
9:50 PM48 °FPartly sunny.10 mph71%30.18 "HgN/A
9:20 PM48 °FPartly sunny.10 mph71%30.18 "HgN/A
8:50 PM48 °FBroken clouds.2 mph76%30.15 "HgN/A
8:20 PM50 °FBroken clouds.2 mph71%30.15 "HgN/A
7:50 PM50 °FBroken clouds.3 mph67%30.12 "HgN/A
7:20 PM50 °FBroken clouds.5 mph67%30.12 "HgN/A
6:50 PM50 °FBroken clouds.5 mph67%30.12 "HgN/A
6:20 PM50 °FBroken clouds.5 mph62%30.12 "HgN/A
5:50 PM52 °FBroken clouds.1 mph62%30.12 "HgN/A
5:20 PM50 °FBroken clouds.2 mph67%30.12 "HgN/A
4:50 PM50 °FBroken clouds.2 mph67%30.09 "HgN/A
4:20 PM50 °FBroken clouds.5 mph67%30.09 "HgN/A
3:50 PM50 °FBroken clouds.3 mph62%30.09 "HgN/A
3:20 PM50 °FBroken clouds.3 mph67%30.09 "HgN/A
2:50 PM50 °FBroken clouds.5 mph76%30.09 "HgN/A
2:20 PM48 °FBroken clouds.3 mph82%30.09 "HgN/A
1:50 PM46 °FLight rain. Partly sunny.3 mph82%30.09 "HgN/A
1:20 PM48 °FLight rain. Partly sunny.3 mph76%30.09 "HgN/A
12:20 PM46 °FLight rain. Partly sunny.5 mph82%30.09 "HgN/A
11:50 AM46 °FLight rain. Partly sunny.3 mph82%30.07 "HgN/A
11:20 AM46 °FLight rain. Broken clouds.3 mph82%30.07 "HgN/A
10:20 AM45 °FLight rain. Broken clouds.2 mph87%30.07 "HgN/A
9:50 AM45 °FLight rain. Partly sunny.5 mph87%30.07 "HgN/A
9:20 AM43 °FLight rain. Partly sunny.7 mph93%30.07 "HgN/A
8:50 AM43 °FLight rain. More clouds than sun.6 mph93%30.04 "HgN/A
8:20 AM43 °FLight rain. More clouds than sun.5 mph93%30.04 "HgN/A
7:50 AM41 °FLight rain. Overcast.3 mph100%30.04 "Hg6 mi
7:20 AM41 °FLight rain. Partly sunny.2 mph100%30.04 "HgN/A
6:50 AM41 °FLight rain. Mostly cloudy.2 mph100%30.04 "HgN/A
6:20 AM41 °FLight rain. Mostly cloudy.No wind93%30.01 "HgN/A
5:50 AM41 °FLight rain. Passing clouds.3 mph93%30.01 "HgN/A
5:20 AM43 °FLight rain. Passing clouds.6 mph93%30.01 "Hg5 mi
4:20 AM43 °FLight rain. Passing clouds.7 mph93%30.01 "Hg4 mi
Weather by CustomWeather, © 2016

See weather overviewHow to use our weather pages